Location: Brunsen
(51.8651°N, 9.8610°E)
Time: 21:15:41
(UTC+00:00)

CZ-2C R/B - Pass Details

Date: 20 August 2024
Orbit: 782 x 869 km, 98.3° (Epoch: 07 September)

Event Time Altitude Azimuth Distance (km) Brightness Sun altitude
Exits shadow 01:00:35 41° 162° (SSE) 1,193 3.1 -22.5°
Maximum altitude 01:02:35 88° 77° (ENE) 834 2.6 -22.4°
Drops below altitude 10° 01:07:57 10° 345° (NNW) 2,412 5.7 -22.0°
Sets 01:10:16 0° 346° (NNW) 3,335 6.5 -21.8°
